This is the latest recevied weather packets stored in our database for station/object M0HPP-13. If no packets are shown the sender has not sent any weather packets the latest 10 day(s).
| Time | Temp. | Humidity | Pressure | Rain* | Wind** | Luminosity | Snow |
|---|---|---|---|---|---|---|---|
| 1787828886 | 14.44° C | 99% | 1014.6 hPa | 0 mm | - | 159 W/m² | - |
| 1787828286 | 14.44° C | 99% | 1014.6 hPa | 0 mm | - | 163 W/m² | - |
| 1787827686 | 14.44° C | 98% | 1014.6 hPa | 0 mm | - | 181 W/m² | - |
| 1787827086 | 14.44° C | 98% | 1014.7 hPa | 0 mm | - | 196 W/m² | - |
| 1787826486 | 14.44° C | 99% | 1014.7 hPa | 0 mm | - | 174 W/m² | - |
| 1787825886 | 13.89° C | 99% | 1015 hPa | 0 mm | - | 145 W/m² | - |
| 1787825286 | 13.89° C | 99% | 1015.1 hPa | 0 mm | - | 115 W/m² | - |
| 1787824686 | 13.89° C | 99% | 1015.2 hPa | 0 mm | - | 109 W/m² | - |
| 1787824086 | 13.89° C | 99% | 1015.2 hPa | 0 mm | - | 124 W/m² | - |
| 1787823486 | 13.89° C | 99% | 1015.3 hPa | 0 mm | - | 131 W/m² | - |
| 1787822886 | 13.89° C | 99% | 1015.3 hPa | 0 mm | - | 105 W/m² | - |
| 1787822286 | 13.89° C | 99% | 1015.3 hPa | 0 mm | - | 88 W/m² | - |
| 1787821686 | 13.89° C | 99% | 1015.3 hPa | 0 mm | - | 85 W/m² | - |
| 1787821086 | 13.89° C | 99% | 1015.4 hPa | 0 mm | - | 83 W/m² | - |
| 1787820486 | 13.89° C | 99% | 1015.6 hPa | 0 mm | - | 79 W/m² | - |
| 1787819886 | 13.89° C | 99% | 1015.6 hPa | 0 mm | - | 99 W/m² | - |
| 1787819286 | 13.89° C | 99% | 1015.7 hPa | 0 mm | - | 115 W/m² | - |
| 1787818686 | 13.89° C | 99% | 1015.8 hPa | 0 mm | - | 97 W/m² | - |
| 1787818086 | 13.89° C | 99% | 1015.8 hPa | 0 mm | - | 93 W/m² | - |
| 1787817486 | 13.89° C | 99% | 1015.9 hPa | 0 mm | - | 73 W/m² | - |
| 1787816886 | 13.89° C | 99% | 1015.9 hPa | 0 mm | - | 40 W/m² | - |
| 1787816286 | 13.89° C | 99% | 1016.1 hPa | 0 mm | - | 29 W/m² | - |
| 1787815686 | 13.89° C | 99% | 1016.1 hPa | 0 mm | - | 37 W/m² | - |
| 1787815086 | 13.89° C | 99% | 1016.1 hPa | 0 mm | - | 33 W/m² | - |
| 1787814486 | 13.89° C | 99% | 1016 hPa | 0 mm | - | 31 W/m² | - |
* Rain latest hour (hover to see other rain measurements)
** Current wind speed in m/s (hover to see current wind gust speed)